Location: Unspecified
(17.6330°N, 0.0000°E)
Time: 01:12:36
(UTC+00:00)

S-56A Canister/Altair - Pass Details

Date: 30 June 2019
Orbit: 633 x 2499 km, 38.9° (Epoch: 17 August)

Event Time Altitude Azimuth Distance (km) Brightness Sun altitude
Rises 15:17:07 0° 291° (WNW) 5,680 12.7 44.5°
Reaches altitude 10° 15:22:44 10° 306° (NW) 4,338 12.3 43.2°
Maximum altitude 15:30:10 20° 348° (NNW) 3,092 11.2 41.5°
Drops below altitude 10° 15:36:01 10° 32° (NNE) 3,293 10.7 40.2°
Sets 15:39:30 0° 50° (NE) 3,954 10.9 39.4°
